Regional Weather Roundup
Issued by NWS

Home | Current Version | Previous Version | Graphics & Text | Print | Product List | Glossary On
Versions: 1 2 3 4 5 6 7 8 9 10 11 12 13 14 15 16 17 18 19 20 21 22 23 24 25 26 27 28 29 30 31 32 33 34 35 36 37 38 39 40 41 42 43 44 45 46 47 48 49 50
847
ASUS43 KMPX 071701
RWRMN
WEATHER ROUNDUP FOR MINNESOTA
NATIONAL WEATHER SERVICE TWIN CITIES/CHANHASSEN MN
1100 AM CST SUN FEB 07 2016


NOTE: "FAIR" INDICATES FEW OR NO CLOUDS BELOW 12,000 FEET WITH NO
SIGNIFICANT WEATHER AND/OR OBSTRUCTIONS TO VISIBILITY. N/A MEANS
CURRENT SKY AND/OR WEATHER CONDITIONS ARE NOT AVAILABLE.

MNZ060>063-068>070-071800-
   Twin Cities Metro

CITY           SKY/WX    TMP DP  RH WIND       PRES   REMARKS
TWIN CITIES    MOSUNNY   39  25  57 W17G26    29.64R
ST PAUL        SUNNY     39  25  57 W21G30    29.64R
CRYSTAL        SUNNY     41  25  53 W20G33    29.61S
BLAINE         MOSUNNY  N/A N/A N/A W18G29    29.61R
LAKEVILLE      SUNNY     37  27  65 W20G26    29.65S
EDEN PRAIRIE   MOSUNNY   38  26  62 W16G26    29.64R
SOUTH ST PAUL  SUNNY     40  25  54 W14G20    29.64R
LAKE ELMO      FAIR      39  28  65 W17G28    29.63R
$$
MNZ001>005-007-008-013>017-022>024-027-028-071800-
   Northwest Minnesota

CITY           SKY/WX    TMP DP  RH WIND       PRES   REMARKS
BEMIDJI        LGT SNOW  32  29  91 W25G32    29.49R VSB 1   WCI  18
HALLOCK        SNOW      21  18  86 NW31G43   29.65R VSB 1/4 WCI   3
ROSEAU         LGT SNOW  27  21  80 NW25G32   29.51R VSB 3/4 WCI  11
WARROAD        LGT SNOW  27  21  80 NW23G29   29.51R VSB 3/4 WCI  12
CROOKSTON      LGT SNOW  27  27 100 N29G35    29.64R WCI  11
FOSSTON        LGT SNOW  28  25  86 NW20G28   29.57R WCI  15
DETROIT LAKES  MIX PCPN  34  32  93 NW22G28   29.58R WCI  22
MOORHEAD       LGT RAIN  36  32  87 W25G33    29.62R
PARK RAPIDS    LGT SNOW  34  29  82 W21       29.52R WCI  22
MAHNOMEN       LGT SNOW  32  31  96 NW17G24   29.56R WCI  21
$$
MNZ006-009>011-018-025>026-071800-
   North Central Minnesota

CITY           SKY/WX    TMP DP  RH WIND       PRES   REMARKS
BAUDETTE       LGT SNOW  28  23  81 NW18      29.45R VSB 1   WCI  15
FLAG ISLAND    LGT SNOW  27  21  80 NW21G32   29.46R WCI  13
INTL FALLS     CLOUDY    32  29  88 W9        29.41R WCI  24
WASKISH        LGT SNOW N/A N/A N/A W15       29.47R VSB 1
LONGVILLE      LGT SNOW  34  32  93 W8        29.49R WCI  27
GRAND RAPIDS   CLOUDY    34  30  86 W7        29.46S WCI  28
CRANE LAKE     CLOUDY    32  32 100 S1        29.42R
ORR            MIX PCPN  32  28  86 CALM      29.39R
COOK           CLOUDY    32  30  93 W5        29.42R FOG     WCI  27
WALKER         CLOUDY    32  30  92 W14       29.49R WCI  22
$$
MNZ012-019>021-037-071800-
   Northeast Minnesota

CITY           SKY/WX    TMP DP  RH WIND       PRES   REMARKS
DULUTH         FLURRIES  34  31  88 W14       29.44R WCI  25
ELY            CLOUDY    34  30  86 SW3       29.40R FOG
HIBBING        LGT SNOW  32  31  96 W7        29.42S FOG     WCI  26
EVELETH        MIX PCPN  34  32  93 W7        29.43R WCI  28
DULUTH HARBOR  CLOUDY    36  34  93 SW12G17   29.48R
TWO HARBORS    CLOUDY    37  32  81 W8        29.42R
SILVER BAY     LGT SNOW  34  32  93 CALM      29.41S VSB 1
GRAND MARAIS     N/A     34  32  92 S6        29.48S WCI  29
G MARAIS ARPRT SNOW      28  27  93 SE3       29.43S VSB 1/4
$$
MNZ029>031-032-039>041-046>048-054>057-064-071800-
   West Central Minnesota

CITY           SKY/WX    TMP DP  RH WIND       PRES   REMARKS
FERGUS FALLS   LGT SNOW  34  28  80 W22       29.65S WCI  22
WHEATON        CLOUDY    37  30  75 W21G31    29.70R
MORRIS         CLOUDY    36  28  75 W23G31    29.65F
ALEXANDRIA     CLOUDY    35  27  72 W21G30    29.62R WCI  24
ELBOW LAKE     CLOUDY    34  29  83 NW15      29.64S HAZE    WCI  24
WADENA         LGT SNOW  32  30  93 W15G21    29.57R WCI  22
GLENWOOD       CLOUDY    36  27  69 W23G31    29.63S
APPLETON       CLOUDY    37  28  70 W21       29.69S
BENSON         CLOUDY    37  27  65 NW18G25   29.68S
ORTONVILLE     CLOUDY    37  27  65 W21G31    29.70R
MADISON        MOSUNNY   39  27  60 W24G32    29.72R
WILLMAR        PTSUNNY   37  30  75 W26G32    29.68S
$$
MNZ033>034-036-042>043-049>051-058-059-071800-
   Central Minnesota

CITY           SKY/WX    TMP DP  RH WIND       PRES   REMARKS
ST CLOUD       CLOUDY    37  26  64 W22G30    29.60R
SAUK CENTRE    CLOUDY    35  28  75 W18G32    29.62R WCI  24
PAYNESVILLE    PTSUNNY   37  28  70 W25G33    29.64S
AITKIN         LGT SNOW  37  30  75 W7        29.50R
PINE RIVER     CLOUDY    34  28  80 W10G23    29.56R WCI  26
BRAINERD       CLOUDY    35  28  75 W18G24    29.54R WCI  24
STAPLES        FLURRIES  34  28  80 W17       29.56R WCI  23
LONG PRAIRIE   CLOUDY    34  27  75 W20G28    29.59S WCI  22
LITTLE FALLS   CLOUDY    36  27  69 W17G26    29.58S
LITCHFIELD     PTSUNNY   37  28  70 W16G28    29.65S
BUFFALO        SUNNY     39  26  58 W21G30    29.64S
MAPLE LAKE     SUNNY     40  28  63 W21G30    29.64R
$$
MNZ037-044-045-052-053-071800-
   East Central Minnesota

CITY           SKY/WX    TMP DP  RH WIND       PRES   REMARKS
PRINCETON      CLOUDY    41  27  56 W18G25    29.59R
MORA           CLOUDY    36  27  69 W16G23    29.57R
CAMBRIDGE      CLOUDY    41  27  56 W10G18    29.57R
RUSH CITY      CLOUDY    38  28  66 W15G25    29.57R
MOOSE LAKE     CLOUDY    36  30  80 W10G18    29.49R
HINCKLEY       CLOUDY    37  30  75 W10G18    29.55R
CLOQUET        LGT SNOW  36  32  87 W9        29.46R
MCGREGOR       CLOUDY    36  32  87 W14       29.50R
$$
MNZ071>073-080-081-089-090-097-098-071800-
   Southwest Minnesota

CITY           SKY/WX    TMP DP  RH WIND       PRES   REMARKS
MONTEVIDEO     CLOUDY    41  28  60 NW17G25   29.71S
GRANITE FALLS  MOSUNNY   39  31  71 W25       29.73S
CANBY          MOSUNNY   41  30  66 NW22G36   29.75S
MARSHALL       PTSUNNY   37  26  64 W28G35    29.73R
REDWOOD FALLS  SUNNY     38  27  64 W22G32    29.71S
OLIVIA         SUNNY     39  30  70 W24G30    29.68S
PIPESTONE      PTSUNNY   39  21  48 NW18G29   29.78S
WINDOM         SUNNY     37  28  70 W18       29.76S
WORTHINGTON    MOSUNNY   36  25  64 W23G29    29.79F
JACKSON        MOSUNNY   37  27  65 W21       29.78R
TRACY          SUNNY     38  28  67 W14G25    29.75S
SLAYTON        SUNNY     35  29  78 W23G31    29.77S WCI  23
$$
MNZ065>067-074>077-082>085-091>093-071800-
   South Central Minnesota

CITY           SKY/WX    TMP DP  RH WIND       PRES   REMARKS
MANKATO        MOSUNNY   37  25  60 W17G24    29.72R
NEW ULM        SUNNY     37  27  65 W21G26    29.72R
ST JAMES       SUNNY     39  30  70 W22       29.76S
FAIRMONT       PTSUNNY   37  27  65 W22G32    29.76R
GLENCOE        CLOUDY    39  30  70 W15G28    29.67R
FARIBAULT      SUNNY     39  27  60 W17G29    29.69S
OWATONNA       MOSUNNY   36  25  64 W20G25    29.71R
WASECA         MOSUNNY   36  28  75 W17       29.73S
ALBERT LEA     CLOUDY    37  27  65 W9G18     29.73S
$$
MNZ078>079-086>088-094>096-071800-
   Southeast Minnesota

CITY           SKY/WX    TMP DP  RH WIND       PRES   REMARKS
ROCHESTER      SUNNY     36  26  67 W21       29.69R
RED WING       SUNNY     39  25  56 W15G22    29.64R
STANTON        SUNNY     39  27  60 W14       29.66R
DODGE CENTER   MOSUNNY   36  27  69 W21       29.69R
WINONA         SUNNY     41  27  56 W14G20    29.68S
AUSTIN         CLOUDY    36  27  69 W20       29.72S
PRESTON        SUNNY     34  25  69 W17G25    29.72R WCI  24
$$
ABBREVIATIONS USED IN REMARKS
   TC - TEMPERATURES IN CELSIUS
  WCI - WIND CHILL INDEX
   HX - HEAT INDEX
  VSB - VISIBILITY
$$




USA.gov is the U.S. government's official web portal to all federal, state and local government web resources and services.